Location: ??????
(55.6361°N, 38.0803°E)
Time: 23:55:53
(UTC+00:00)

Cosmos 1862 Rocket - Pass Details

Date: 30 March 2020
Orbit: 603 x 635 km, 82.5° (Epoch: 27 May)

Event Time Altitude Azimuth Distance (km) Brightness Sun altitude
Exits shadow 01:38:00 17° 226° (SW) 1,568 5.0 -12.3°
Maximum altitude 01:41:01 41° 290° (WNW) 910 4.1 -11.9°
Drops below altitude 10° 01:45:14 10° 1° (N) 2,009 6.5 -11.4°
Sets 01:47:36 0° 9° (N) 2,926 7.5 -11.1°
